Date String (YYYY-MM-DD hh:mm:ss) UTC,Instrument flags,Ambient pressure (hPa),Sample flow (lpm),Bypass flow (lpm),Sample temperature (°C),Ambient temperature (°C),ASC tube jacket temperature (°C),LED temperature (°C),Box temperature (°C),Sample RH (%),Span deviation,Mass concentration (μg/m³),Mass concentration (μg/m³),Mass concentration (μg/m³)
DateTimeUTC,F1_M11,P_M11,Q1_M11,Q2_M11,T1_M11,T2_M11,T3_M11,T4_M11,T5_M11,U1_M11,ZSPAN_M11,X0_M11,X2_M11,X1_M11
2022-09-03 17:00:00,,0835.6,5.01,0.00,29.8,26.9,00.0,38.5,31.6,24.4,0000.0,0024.20,0009.88,0008.17
2022-09-03 17:01:00,,0835.6,5.00,0.00,29.8,26.9,00.0,38.5,31.6,24.3,0000.0,0024.51,0009.89,0008.20
2022-09-03 17:02:00,,0835.6,4.99,0.00,29.8,27.1,00.0,38.5,31.5,24.6,0000.0,0024.55,0009.97,0008.22
2022-09-03 17:03:00,,0835.6,5.01,0.00,29.7,27.4,00.0,38.4,31.4,25.1,0000.0,0025.74,0010.05,0008.24
2022-09-03 17:04:00,,0835.6,5.00,0.00,29.7,27.7,00.0,38.4,31.5,25.7,0000.0,0026.22,0010.06,0008.25
2022-09-03 17:05:00,,0835.6,5.01,0.00,29.7,28.0,00.0,38.4,31.5,26.1,0000.0,0025.97,0010.05,0008.26
2022-09-03 17:06:00,,0835.6,5.00,0.00,29.7,28.2,00.0,38.4,31.6,26.5,0000.0,0025.81,0010.10,0008.28
2022-09-03 17:07:00,,0835.6,5.00,0.00,29.8,28.4,00.0,38.5,31.6,26.7,0000.0,0027.14,0010.17,0008.31
2022-09-03 17:08:00,,0835.5,5.01,0.00,29.8,28.6,00.0,38.5,31.7,26.4,0000.0,0026.60,0010.21,0008.33
2022-09-03 17:09:00,,0835.6,5.00,0.00,29.8,28.7,00.0,38.5,31.7,26.4,0000.0,0026.14,0010.18,0008.34
2022-09-03 17:10:00,,0835.6,4.99,0.00,29.8,28.0,00.0,38.5,31.7,26.0,0000.0,0025.17,0010.14,0008.34
2022-09-03 17:11:00,,0835.5,5.00,0.00,29.8,26.8,00.0,38.5,31.5,26.0,0000.0,0024.67,0010.16,0008.36
2022-09-03 17:12:00,,0835.5,5.00,0.00,29.7,26.7,00.0,38.4,31.5,26.1,0000.0,0025.33,0010.22,0008.35
2022-09-03 17:13:00,,0835.5,5.01,0.00,29.7,26.9,00.0,38.4,31.4,26.0,0000.0,0026.01,0010.25,0008.35
2022-09-03 17:14:00,,0835.5,4.99,0.00,29.6,27.2,00.0,38.4,31.3,26.1,0000.0,0025.24,0010.16,0008.34
2022-09-03 17:15:00,,0835.6,5.00,0.00,29.6,27.5,00.0,38.4,31.4,25.4,0000.0,0025.11,0010.13,0008.33
2022-09-03 17:16:00,,0835.5,5.01,0.00,29.6,27.8,00.0,38.4,31.4,25.1,0000.0,0025.14,0010.03,0008.29
2022-09-03 17:17:00,,0835.5,5.00,0.00,29.7,28.1,00.0,38.4,31.5,25.1,0002.0,0024.45,0009.95,0008.23
2022-09-03 17:18:00,,0835.5,5.00,0.00,29.7,28.3,00.0,38.4,31.5,25.3,0001.1,0022.61,0009.87,0008.17
2022-09-03 17:19:00,,0835.5,5.01,0.00,29.7,28.4,00.0,38.4,31.6,25.5,0000.1,0022.14,0009.75,0008.13
2022-09-03 17:20:00,,0835.5,4.99,0.00,29.7,28.6,00.0,38.4,31.7,25.3,0003.1,0022.27,0009.73,0008.09
2022-09-03 17:21:00,,0835.5,5.00,0.00,29.8,28.7,00.0,38.4,31.7,25.3,0000.1,0022.20,0009.70,0008.04
2022-09-03 17:22:00,,0835.5,5.01,0.00,29.8,28.4,00.0,38.5,31.7,25.0,0002.0,0021.64,0009.67,0007.99
2022-09-03 17:23:00,,0835.5,4.99,0.00,29.8,27.2,00.0,38.4,31.6,24.8,0001.7,0020.93,0009.54,0007.94
2022-09-03 17:24:00,,0835.5,5.00,0.00,29.7,26.7,00.0,38.4,31.5,24.5,0000.4,0018.68,0009.40,0007.88
2022-09-03 17:25:00,,0835.5,5.01,0.00,29.7,26.9,00.0,38.4,31.4,24.4,0000.0,0018.83,0009.38,0007.83
2022-09-03 17:26:00,,0835.5,5.00,0.00,29.6,27.2,00.0,38.3,31.4,24.7,0000.0,0018.32,0009.38,0007.78
2022-09-03 17:27:00,,0835.5,5.01,0.00,29.6,27.5,00.0,38.3,31.4,25.1,0000.0,0018.90,0009.32,0007.76
2022-09-03 17:28:00,,0835.5,5.01,0.00,29.6,27.8,00.0,38.3,31.4,25.0,0000.0,0019.08,0009.27,0007.78
2022-09-03 17:29:00,,0835.5,5.00,0.00,29.6,28.0,00.0,38.3,31.5,25.2,0000.0,0019.26,0009.27,0007.79
2022-09-03 17:30:00,,0835.5,4.98,0.00,29.7,28.2,00.0,38.3,31.5,24.8,0000.0,0020.41,0009.26,0007.77
2022-09-03 17:31:00,,0835.5,5.01,0.00,29.7,28.4,00.0,38.4,31.6,24.7,0000.0,0019.94,0009.18,0007.73
2022-09-03 17:32:00,,0835.5,5.00,0.00,29.7,28.6,00.0,38.4,31.6,25.2,0000.0,0019.82,0009.15,0007.71
2022-09-03 17:33:00,,0835.5,5.00,0.00,29.8,28.4,00.0,38.4,31.7,25.0,0000.0,0020.22,0009.07,0007.69
2022-09-03 17:34:00,,0835.5,5.01,0.00,29.7,27.3,00.0,38.4,31.5,25.3,0000.0,0020.41,0009.09,0007.69
2022-09-03 17:35:00,,0835.4,5.00,0.00,29.7,26.6,00.0,38.4,31.4,25.4,0000.0,0021.24,0009.10,0007.70
2022-09-03 17:36:00,,0835.4,4.99,0.00,29.6,26.8,00.0,38.3,31.4,25.6,0000.0,0021.04,0008.98,0007.71
2022-09-03 17:37:00,,0835.4,5.00,0.00,29.6,27.1,00.0,38.3,31.3,25.8,0000.0,0020.86,0008.97,0007.72
2022-09-03 17:38:00,,0835.4,5.01,0.00,29.6,27.4,00.0,38.3,31.3,25.9,0000.0,0020.47,0009.02,0007.75
2022-09-03 17:39:00,,0835.4,5.00,0.00,29.6,27.7,00.0,38.3,31.4,25.8,0000.0,0020.40,0009.06,0007.75
2022-09-03 17:40:00,,0835.4,5.00,0.00,29.6,28.0,00.0,38.3,31.4,25.7,0000.0,0020.24,0009.05,0007.74
2022-09-03 17:41:00,,0835.4,4.98,0.00,29.6,28.2,00.0,38.3,31.5,25.6,0000.0,0019.41,0009.06,0007.74
2022-09-03 17:42:00,,0835.4,5.01,0.00,29.6,28.3,00.0,38.3,31.5,25.6,0000.0,0019.82,0009.17,0007.76
2022-09-03 17:43:00,,0835.4,4.99,0.00,29.7,28.5,00.0,38.3,31.6,26.3,0000.0,0020.76,0009.21,0007.77
2022-09-03 17:44:00,,0835.4,5.00,0.00,29.7,28.0,00.0,38.3,31.6,26.7,0000.0,0020.89,0009.27,0007.79
2022-09-03 17:45:00,,0835.4,5.00,0.00,29.7,26.8,00.0,38.3,31.4,26.8,0000.0,0021.38,0009.32,0007.83
2022-09-03 17:46:00,,0835.4,4.99,0.00,29.6,26.5,00.0,38.3,31.4,26.7,0000.0,0020.85,0009.37,0007.85
2022-09-03 17:47:00,,0835.4,5.00,0.00,29.6,26.8,00.0,38.3,31.3,26.8,0000.0,0021.23,0009.50,0007.90
2022-09-03 17:48:00,,0835.4,5.01,0.00,29.5,27.1,00.0,38.2,31.3,27.3,0000.0,0021.87,0009.55,0007.95
2022-09-03 17:49:00,,0835.4,5.00,0.00,29.5,27.4,00.0,38.2,31.3,27.1,0000.0,0021.13,0009.57,0007.98
2022-09-03 17:50:00,,0835.4,5.00,0.00,29.5,27.7,00.0,38.2,31.3,27.1,0000.0,0021.54,0009.60,0008.02
2022-09-03 17:51:00,,0835.4,5.00,0.00,29.5,27.9,00.0,38.2,31.4,26.9,0000.0,0021.77,0009.65,0008.06
2022-09-03 17:52:00,,0835.3,4.99,0.00,29.6,28.2,00.0,38.2,31.4,27.3,0000.0,0022.52,0009.75,0008.12
2022-09-03 17:53:00,,0835.4,5.00,0.00,29.6,28.3,00.0,38.3,31.5,27.2,0000.0,0022.85,0009.80,0008.18
2022-09-03 17:54:00,,0835.4,5.01,0.00,29.6,28.5,00.0,38.3,31.6,27.0,0000.0,0022.86,0009.90,0008.25
2022-09-03 17:55:00,,0835.4,4.99,0.00,29.7,28.6,00.0,38.3,31.6,27.0,0000.0,0023.10,0009.96,0008.29
2022-09-03 17:56:00,,0835.4,4.99,0.00,29.7,27.8,00.0,38.3,31.6,26.9,0000.0,0022.73,0010.00,0008.31
2022-09-03 17:57:00,,0835.4,5.00,0.00,29.6,26.7,00.0,38.3,31.4,27.0,0000.0,0023.01,0010.05,0008.34
2022-09-03 17:58:00,,0835.3,5.00,0.00,29.6,26.6,00.0,38.2,31.4,27.0,0000.0,0023.29,0010.07,0008.36
2022-09-03 17:59:00,,0835.3,5.01,0.00,29.5,26.9,00.0,38.2,31.3,27.2,0000.0,0022.85,0010.07,0008.37
